This is the latest recevied weather packets stored in our database for station/object WD0REW. If no packets are shown the sender has not sent any weather packets the latest 10 day(s).
| Time | Temp. | Humidity | Pressure | Rain* | Wind** | Luminosity | Snow |
|---|---|---|---|---|---|---|---|
| 1777988506 | 13.89° C | 79% | 1008.2 hPa | 0 mm | - | 150 W/m² | - |
| 1777988203 | 13.89° C | 78% | 1008.5 hPa | 0 mm | - | 122 W/m² | - |
| 1777987899 | 14.44° C | 77% | 1008.4 hPa | 0 mm | - | 99 W/m² | - |
| 1777987595 | 14.44° C | 78% | 1008.3 hPa | 0 mm | - | 159 W/m² | - |
| 1777987293 | 14.44° C | 78% | 1008.3 hPa | 0 mm | - | 120 W/m² | - |
| 1777986989 | 13.89° C | 77% | 1008.3 hPa | 0 mm | - | 183 W/m² | - |
| 1777986687 | 13.89° C | 77% | 1008.1 hPa | 0 mm | - | 124 W/m² | - |
| 1777986385 | 13.89° C | 78% | 1007.8 hPa | 0 mm | - | 116 W/m² | - |
| 1777986084 | 13.89° C | 79% | 1007.9 hPa | 0 mm | - | 139 W/m² | - |
| 1777985779 | 13.89° C | 82% | 1007.9 hPa | 0 mm | - | 93 W/m² | - |
| 1777985477 | 13.89° C | 80% | 1008 hPa | 0 mm | - | 111 W/m² | - |
| 1777985173 | 13.33° C | 81% | 1007.7 hPa | 0 mm | - | 88 W/m² | - |
| 1777984869 | 13.33° C | 81% | 1007.9 hPa | 0 mm | - | 71 W/m² | - |
| 1777984566 | 13.33° C | 81% | 1008 hPa | 0 mm | - | 60 W/m² | - |
| 1777984263 | 13.33° C | 81% | 1007.7 hPa | 0 mm | - | 50 W/m² | - |
| 1777983959 | 13.89° C | 81% | 1007.2 hPa | 0 mm | - | 49 W/m² | - |
| 1777983656 | 13.89° C | 82% | 1007.6 hPa | 0 mm | - | 45 W/m² | - |
| 1777983352 | 13.89° C | 82% | 1007.1 hPa | 0 mm | - | 42 W/m² | - |
| 1777983050 | 13.89° C | 82% | 1007.4 hPa | 0 mm | - | 35 W/m² | - |
| 1777982746 | 14.44° C | 83% | 1007.3 hPa | 0 mm | - | 23 W/m² | - |
| 1777982442 | 14.44° C | 83% | 1007.5 hPa | 0 mm | - | 24 W/m² | - |
| 1777982136 | 14.44° C | 84% | 1007.4 hPa | 0 mm | - | 25 W/m² | - |
| 1777981834 | 14.44° C | 85% | 1007.2 hPa | 0 mm | - | 23 W/m² | - |
| 1777981531 | 14.44° C | 84% | 1007.3 hPa | 0 mm | - | 17 W/m² | - |
| 1777981227 | 14.44° C | 84% | 1007.6 hPa | 0 mm | - | 15 W/m² | - |
* Rain latest hour (hover to see other rain measurements)
** Current wind speed in m/s (hover to see current wind gust speed)